Weather observations for the past three days for
Watertown
Imperial (Metric)
Date Time (cdt) Wind (mph) Vis. (mi.) Weather Sky Cond. Temperature (ºF) Relative Humidity Wind Chill (°F) Heat Index (°F) Pressure Precipitation (in)
Air Dwpt 6 hour altimeter (in) sea level (mb) 1 hr 3 hr 6 hr
Max. Min.
16 11:10 N 7 10.00 Partly Cloudy SCT020 78.4 67.5 69% 81 29.81 0.0
16 10:55 N 6 10.00 Mostly Cloudy BKN018 BKN070 77.4 67.5 72% 79 29.81 0.0
16 10:35 N 5 10.00 Mostly Cloudy BKN016 BKN070 77 72.9 87% 78 29.81 0.0
16 10:15 NW 6 10.00 Overcast OVC016 74.3 73.6 98% 29.81 0.0
16 09:55 NW 8 10.00 Overcast BKN011 OVC017 74.1 73.4 98% 29.81 0.0
16 09:35 N 5 10.00 Overcast OVC009 73 72.5 98% 29.81 0.0
16 09:15 NW 7 10.00 Overcast OVC009 72.9 72.1 98% 29.79 0.0
16 08:55 NW 7 10.00 Overcast OVC009 72.9 72.3 98% 29.78 0.0
16 08:35 NW 7 10.00 Overcast OVC007 73 72.5 98% 29.78 0.0
16 08:15 W 5 10.00 Overcast OVC007 72 71.6 99% 29.78 0.0
16 07:55 W 6 10.00 Overcast OVC007 71.6 70.9 98% 29.78 0.0
16 07:35 W 6 10.00 Overcast OVC007 70.9 70.2 98% 29.77 0.0
16 07:15 W 5 10.00 Overcast OVC007 70.3 69.8 98% 29.77 0.0
16 06:55 Calm 10.00 Overcast OVC007 69.8 69.3 69.8 68.2 98% 29.76 0.0 0.02
16 06:35 W 5 10.00 Overcast OVC007 69.4 68.9 98% 29.76 0.0
16 06:15 SW 5 10.00 Overcast OVC007 68.9 68.4 98% 29.76 0.0
16 05:55 SW 5 10.00 Overcast OVC007 68.9 68.4 98% 29.75 0.0
16 05:35 SW 6 10.00 Overcast OVC007 68.7 68 98% 29.75 0.0
16 05:15 S 5 10.00 Overcast OVC007 68.9 68.4 98% 29.75 0.0
16 04:50 SW 6 10.00 Overcast OVC007 68.5 68 98% 29.74 0.0
16 04:35 SW 7 10.00 Overcast OVC007 68.4 68 99% 29.74 0.0
16 04:15 SW 8 10.00 Overcast OVC007 68.4 68 99% 29.74 0.0
16 03:55 SW 6 10.00 Overcast OVC007 68.4 68 99% 29.74 0.0 0.02 0.02
16 03:35 SW 7 10.00 Overcast OVC009 68.4 68 99% 29.73 0.0 0.02
16 03:15 SW 8 7.00 Rain BKN009 BKN018 OVC033 68.4 68 99% 29.73 0.0 0.02
16 02:55 SW 8 10.00 Mostly Cloudy BKN009 BKN018 BKN032 68.2 67.8 99% 29.73 0.0
16 02:35 SW 9 10.00 Mostly Cloudy SCT009 SCT019 BKN032 68.5 68 98% 29.73 0.0
16 02:15 SW 6 10.00 Partly Cloudy SCT019 68.4 68 99% 29.74 0.0
16 01:55 SW 8 10.00 Partly Cloudy SCT019 68.9 68.4 98% 29.75 0.0
16 01:35 S 8 10.00 Overcast OVC019 69.1 68.5 98% 29.75 0.0
16 01:15 S 6 10.00 Overcast OVC021 69.8 69.1 98% 29.74 0.0
16 00:55 S 8 10.00 Mostly Cloudy BKN023 BKN035 BKN045 69.3 68.9 82 68.2 99% 29.75 0.0 0.1 0.38
16 00:35 SW 12 10.00 Light Drizzle SCT026 BKN035 OVC065 68.9 68.4 98% 29.74 0.0 0.1
16 00:15 S 12 G 22 7.00 Light Rain SCT020 BKN042 OVC075 68.2 67.6 98% 29.74 0.0 0.09
15 23:55 SW 15 3.00 Heavy Rain SCT016 BKN041 OVC120 69.3 68.7 98% 29.74 0.0 0.26
15 23:35 S 12 G 18 10.00 Light Drizzle SCT018 BKN044 BKN065 70.2 69.8 99% 29.73 0.0 0.01
15 23:15 S 10 10.00 Light Rain SCT037 BKN045 OVC095 70.7 70.2 98% 29.73 0.0 0.01
15 22:55 SW 13 10.00 Overcast BKN032 BKN038 OVC046 70.7 70.2 98% 29.71 0.0
15 22:35 SW 9 10.00 Thunderstorm BKN032 BKN090 70.2 69.8 99% 29.72 0.0
15 22:15 SE 10 G 16 10.00 Thunderstorm in Vicinity SCT022 SCT065 BKN090 70.5 70 98% 29.67 0.0
15 21:55 SE 5 10.00 Thunderstorm Light Rain BKN022 BKN065 OVC090 72.5 71.8 98% 29.69 0.0 0.02 0.02
15 21:35 SW 10 10.00 Light Drizzle OVC022 73.8 70 88% 29.7 0.0
15 21:15 S 10 10.00 Thunderstorm Light Rain BKN022 BKN033 75.7 75.2 98% 74 29.68 0.0
15 20:55 SE 5 10.00 Partly Cloudy SCT037 77.9 77.2 98% 80 29.64 0.0
15 20:35 Calm 10.00 Light Rain BKN038 BKN110 78.4 77.7 98% 82 29.65 0.0
15 19:55 Calm 10.00 Light Rain SCT033 SCT080 SCT110 81.1 72.7 76% 86 29.66 0.0
15 19:35 Calm 10.00 Overcast OVC033 81.9 72.5 73% 87 29.69 0.0
15 19:15 Calm 10.00 Mostly Cloudy BKN033 BKN040 81.5 72.9 75% 87 29.71 0.0
15 18:55 S 3 10.00 Partly Cloudy SCT033 81.9 72.3 86.7 81.9 73% 87 29.69 0.0
15 18:35 S 5 10.00 Fair CLR 82.8 72.1 70% 88 29.69 0.0
15 18:15 S 6 10.00 Fair CLR 84.9 71.4 64% 90 29.71 0.0
15 17:55 S 6 10.00 Fair CLR 85.6 72.5 65% 92 29.71 0.0
15 17:35 S 6 10.00 Fair CLR 86 72 63% 92 29.71 0.0
15 17:15 S 8 10.00 Partly Cloudy SCT032 86.2 72.3 63% 93 29.72 0.0
15 16:55 S 7 10.00 Mostly Cloudy BKN032 86.4 72.1 63% 93 29.74 0.0
15 16:35 S 8 10.00 Partly Cloudy SCT035 86.2 71.8 62% 92 29.75 0.0
15 16:15 S 8 10.00 Partly Cloudy SCT034 85.6 71.1 62% 91 29.75 0.0
15 15:55 S 9 10.00 Partly Cloudy SCT034 85.5 71.6 63% 91 29.76 0.0
15 15:35 S 9 10.00 Partly Cloudy SCT031 86 71.6 62% 92 29.76 0.0
15 15:15 S 12 10.00 Partly Cloudy SCT031 85.1 71.1 63% 90 29.77 0.0
15 14:55 S 7 10.00 Fair CLR 86.4 71.8 62% 93 29.78 0.0
15 14:35 S 7 10.00 Fair CLR 85.1 71.8 64% 91 29.78 0.0
15 14:15 SW 10 10.00 Partly Cloudy SCT033 SCT039 86 72 63% 92 29.79 0.0
15 13:55 SW 9 10.00 Partly Cloudy SCT033 85.1 70 61% 90 29.81 0.0
15 13:35 S 6 10.00 Fair CLR 86 71.8 63% 92 29.79 0.0
15 13:15 SW 5 10.00 Partly Cloudy SCT030 SCT039 84.7 71.2 64% 90 29.81 0.0
15 12:55 SW 5 10.00 Partly Cloudy SCT032 SCT039 SCT046 84.9 71.1 85.8 70.7 63% 90 29.83 0.0
15 12:35 SW 5 10.00 Mostly Cloudy SCT026 SCT031 BKN039 85.1 71.2 63% 91 29.84 0.0
15 12:15 W 7 10.00 Mostly Cloudy BKN026 BKN031 BKN037 84.2 72.1 67% 90 29.85 0.0
15 11:55 W 7 10.00 Mostly Cloudy BKN024 BKN031 BKN037 85.3 72.5 66% 92 29.85 0.0
15 11:35 SW 5 10.00 Mostly Cloudy SCT022 BKN031 BKN037 83.5 72.5 70% 89 29.86 0.0
15 11:15 W 5 10.00 Partly Cloudy SCT020 83.3 72.9 71% 89 29.86 0.0
15 10:55 Calm 10.00 Partly Cloudy SCT018 82.8 73 73% 89 29.86 0.0
15 10:35 SW 6 10.00 Fair CLR 81.5 72.7 75% 86 29.87 0.0
15 10:15 W 5 10.00 Fair CLR 80.6 71.8 75% 85 29.86 0.0
15 09:55 Calm 10.00 Fair CLR 79.7 71.2 75% 83 29.86 0.0
15 09:35 SW 3 10.00 Fair CLR 78.3 70.3 77% 81 29.84 0.0
15 09:15 Calm 10.00 Fair CLR 77.4 69.3 76% 79 29.84 0.0
15 08:55 Calm 10.00 Fair CLR 76.8 68.9 77% 78 29.84 0.0
15 08:35 Calm 10.00 Fair CLR 75.9 68.9 79% 77 29.85 0.0
15 08:15 SW 3 10.00 Fair CLR 75.2 68.4 79% 76 29.85 0.0
15 07:55 SW 3 10.00 Fair CLR 73.6 73 98% 29.86 0.0
15 07:35 SW 3 10.00 Fair CLR 72.7 72.1 98% 29.85 0.0
15 07:15 SW 3 10.00 Fair CLR 71.6 70.9 98% 29.85 0.0
15 06:55 SW 3 10.00 Fair CLR 70.7 70 70.7 68.5 98% 29.85 0.0
15 06:35 Calm 10.00 Partly Cloudy SCT034 SCT040 69.8 69.1 98% 29.85 0.0
15 06:15 Calm 10.00 Partly Cloudy SCT034 SCT040 68.9 68.4 98% 29.85 0.0
15 05:55 SW 5 10.00 Partly Cloudy SCT024 68.9 68.4 98% 29.86 0.0
15 05:35 SW 5 10.00 Partly Cloudy SCT024 SCT032 69.1 68.5 98% 29.85 0.0
15 05:15 W 6 10.00 Mostly Cloudy BKN024 BKN030 BKN044 69.3 68.9 99% 29.86 0.0
15 04:55 W 5 10.00 Overcast OVC026 69.1 68.7 99% 29.86 0.0
15 04:30 SW 3 10.00 Overcast BKN028 BKN033 OVC048 69.1 68.5 98% 29.86 0.0
15 04:15 SW 5 10.00 Overcast OVC028 69.3 68.9 99% 29.86 0.0
15 03:55 W 3 10.00 Overcast OVC028 69.4 68.9 98% 29.86 0.0
15 03:35 SW 5 10.00 Overcast OVC026 69.4 68.9 98% 29.86 0.0
15 03:15 SW 6 10.00 Overcast OVC026 69.4 68.9 98% 29.85 0.0
15 02:55 SW 5 10.00 Overcast SCT024 OVC029 69.3 68.7 98% 29.84 0.0
15 02:35 SW 6 10.00 Overcast OVC029 69.4 68.9 98% 29.84 0.0
15 02:15 SW 5 10.00 Overcast BKN025 OVC030 69.3 68.9 99% 29.84 0.0
15 01:55 SW 3 10.00 Overcast OVC030 68.9 68.4 98% 29.84 0.0
15 01:35 Calm 10.00 Overcast OVC030 69.3 68.7 98% 29.83 0.0
15 01:15 W 5 10.00 Overcast OVC028 69.3 68.9 99% 29.83 0.0
15 00:55 W 5 10.00 Mostly Cloudy BKN028 69.8 69.1 80.8 69.3 98% 29.84 0.0 0.06
15 00:35 S 3 10.00 Partly Cloudy SCT028 SCT090 69.6 69.1 98% 29.85 0.0
15 00:15 SW 3 10.00 Mostly Cloudy SCT031 BKN090 69.8 69.1 98% 29.86 0.0
14 23:55 Calm 10.00 Mostly Cloudy BKN090 69.8 69.3 98% 29.86 0.0
14 23:35 Calm 10.00 Partly Cloudy SCT090 70.2 69.8 99% 29.85 0.0
14 23:15 Calm 10.00 Partly Cloudy SCT021 70.7 70 98% 29.85 0.0
14 22:55 Calm 10.00 Overcast OVC021 70.9 70.3 98% 29.86 0.0
14 22:35 SW 3 10.00 Mostly Cloudy BKN019 71.6 71.1 98% 29.86 0.0
14 22:15 Calm 10.00 Partly Cloudy SCT015 SCT024 SCT090 72 71.4 98% 29.85 0.0
14 21:55 W 3 10.00 Mostly Cloudy SCT015 SCT033 BKN042 72.5 71.8 98% 29.87 0.0 0.03 0.06
14 21:35 Calm 10.00 Light Rain SCT011 BKN060 OVC100 72.3 71.8 98% 29.86 0.0 0.02
14 21:15 W 5 10.00 Thunderstorm Light Rain SCT011 SCT024 BKN095 73.9 73.4 98% 29.84 0.0 0.01
14 20:55 Calm 10.00 Thunderstorm Light Rain SCT075 BKN110 77 76.3 98% 78 29.83 0.0 0.03
14 20:35 Calm 5.00 Thunderstorm Light Rain in Vicinity SCT090 BKN110 77.4 77 99% 79 29.83 0.0 0.02
14 20:15 S 3 10.00 Light Rain SCT055 BKN120 78.8 74.7 87% 82 29.84 0.0
14 19:55 Calm 10.00 Light Rain OVC055 79.5 73.2 81% 83 29.84 0.0
14 19:35 Calm 10.00 Thunderstorm in Vicinity SCT035 BKN045 OVC055 79.7 72.5 79% 83 29.85 0.0
14 19:15 S 3 10.00 Overcast SCT034 BKN045 OVC050 80.1 72.5 78% 84 29.86 0.0
14 18:55 S 3 10.00 Mostly Cloudy SCT033 SCT043 BKN049 81 72 85.6 80.8 74% 85 29.86 0.0
14 18:35 S 6 10.00 Mostly Cloudy SCT033 BKN049 81.7 72.5 74% 87 29.87 0.0
14 18:15 S 6 10.00 Overcast OVC049 81.9 72 72% 87 29.87 0.0
14 17:50 S 6 10.00 Overcast SCT029 SCT039 OVC049 83.1 72.1 70% 89 29.87 0.0
14 17:35 S 7 10.00 Overcast SCT029 SCT039 OVC047 83.3 72.1 69% 89 29.87 0.0
14 17:15 S 6 10.00 Overcast SCT031 BKN039 OVC045 82.8 71.6 69% 88 29.88 0.0
14 16:55 SW 9 10.00 Overcast BKN031 OVC041 83.7 71.6 67% 89 29.88 0.0
14 16:35 S 8 10.00 Overcast OVC033 83.1 71.2 67% 88 29.87 0.0
14 16:15 SW 6 10.00 Partly Cloudy SCT033 84.2 70.5 64% 89 29.87 0.0
14 15:55 SW 7 10.00 Fair CLR 85.5 70.7 61% 91 29.87 0.0
14 15:35 S 6 10.00 Partly Cloudy SCT032 84.2 71.1 65% 89 29.87 0.0
14 15:15 SW 5 10.00 Fair CLR 82.9 69.6 64% 87 29.88 0.0
14 14:55 S 6 10.00 Fair CLR 85.1 70.9 63% 90 29.88 0.0
14 14:35 W 7 10.00 Partly Cloudy SCT029 84.4 70.5 63% 89 29.89 0.0
14 14:15 SW 8 10.00 Fair CLR 83.3 69.4 63% 87 29.89 0.0
14 13:55 W 6 10.00 Fair CLR 83.1 69.3 63% 87 29.89 0.0
14 13:35 W 8 10.00 Fair CLR 82.6 69.3 64% 86 29.89 0.0
14 13:15 W 9 10.00 Fair CLR 81.3 68 64% 84 29.89 0.0
14 12:55 SW 9 10.00 Fair CLR 80.6 68.4 80.6 65.8 66% 83 29.91 0.0 0.09
14 12:35 SW 10 10.00 Fair CLR 80.1 67.8 66% 83 29.91 0.0
14 12:15 SW 12 10.00 Fair CLR 79 67.8 69% 81 29.91 0.0
14 11:55 SW 14 10.00 Fair CLR 77.4 66.7 70% 79 29.92 0.0
14 11:35 SW 13 10.00 Fair CLR 76.6 67.1 72% 78 29.93 0.0
14 11:15 SW 10 G 18 10.00 Fair CLR 74.8 66.2 75% 29.93 0.0
14 10:55 SW 9 10.00 Fair CLR 74.3 66 75% 29.92 0.0
14 10:35 SW 13 G 17 10.00 Fair CLR 73.8 66 77% 29.91 0.0
14 10:15 SW 10 10.00 Fair CLR 73.6 66 77% 29.91 0.0
14 09:55 S 10 G 17 10.00 Fair CLR 73.2 71.6 95% 29.9 0.0 0.09
14 09:35 S 9 10.00 Fair CLR 70 69.6 99% 29.89 0.0
14 09:15 S 8 10.00 Fair CLR 68 67.3 98% 29.89 0.0
14 08:55 S 13 10.00 Fair CLR 67.1 66.4 98% 29.89 0.0
14 08:35 SE 8 10.00 Fair CLR 66.6 66 98% 29.89 0.0
14 08:15 SE 8 10.00 Fair CLR 66.4 66 99% 29.9 0.0
14 07:55 S 8 10.00 Partly Cloudy SCT090 66 65.3 98% 29.91 0.0 0.09
14 07:35 E 13 10.00 Light Rain OVC100 66.2 65.5 98% 29.92 0.0 0.09
14 07:15 Calm 5.00 Thunderstorm Rain OVC100 66.6 66 98% 30.01 0.0 0.04
14 06:55 NW 7 G 18 10.00 Thunderstorm Rain in Vicinity SCT060 OVC100 66.6 66.2 67.6 65.3 99% 30.02 0.0 0.33 0.33
14 06:35 NW 12 G 18 7.00 Thunderstorm Light Rain SCT012 BKN065 OVC090 66.9 66.4 98% 30 0.0 0.32
14 06:15 NW 12 G 23 5.00 Thunderstorm Heavy Rain SCT009 BKN020 OVC090 67.5 67.1 99% 30.02 0.0 0.11
14 05:55 N 6 10.00 Thunderstorm SCT026 SCT055 OVC080 66.4 66 99% 29.98 0.0
14 05:35 Calm 10.00 Mostly Cloudy BKN080 66 65.5 98% 29.96 0.0
14 05:15 Calm 10.00 Fair CLR 65.5 64.9 98% 29.96 0.0
14 04:55 S 3 7.00 Fair CLR 65.5 64.9 98% 29.95 0.0
14 04:35 Calm 10.00 Fair CLR 65.7 65.1 98% 29.95 0.0
14 04:15 Calm 10.00 Fair CLR 65.7 65.3 99% 29.95 0.0
14 03:55 Calm 10.00 Fair CLR 66.2 65.5 98% 29.95 0.0
14 03:35 S 3 10.00 Fair CLR 66.9 66.2 98% 29.94 0.0
14 03:15 SW 12 G 17 10.00 Fair CLR 67.3 66.7 98% 29.97 0.0
14 02:55 SW 10 G 16 10.00 Fair CLR 67.3 66.9 99% 29.96 0.0
14 02:35 S 12 G 17 10.00 Fair CLR 67.5 67.1 99% 29.95 0.0
14 02:15 S 9 10.00 Fair CLR 67.5 67.1 99% 29.95 0.0
14 01:55 S 13 10.00 Fair CLR 66.9 66.4 98% 29.95 0.0
14 01:35 S 14 G 21 10.00 Fair CLR 66.4 65.8 98% 29.97 0.0
14 01:15 S 13 G 22 10.00 Thunderstorm in Vicinity CLR 66.4 65.8 98% 29.96 0.0
14 00:55 S 16 G 22 10.00 Thunderstorm Light Rain SCT020 BKN032 BKN040 67.1 66.6 81.9 65.5 98% 29.97 0.0 0.58 1.26
14 00:35 S 20 G 24 2.00 Thunderstorm Heavy Rain BKN014 OVC022 65.5 64.9 98% 30.02 0.0 0.46
14 00:15 W 12 G 22 10.00 Thunderstorm Heavy Rain SCT009 BKN100 OVC120 66.6 66.2 99% 30.06 0.0 0.01
13 23:55 Calm 10.00 Thunderstorm SCT060 SCT100 BKN120 66.4 65.8 98% 30.01 0.0 0.01
13 23:35 Calm 10.00 Thunderstorm Light Rain in Vicinity SCT065 SCT070 SCT090 66.2 65.7 98% 30.01 0.0
13 23:15 N 3 10.00 Light Rain CLR 66.2 65.7 98% 30.04 0.0
13 22:55 SE 3 10.00 Thunderstorm Light Rain in Vicinity SCT110 66.2 65.5 98% 30.02 0.0 0.03
13 22:35 S 7 10.00 Thunderstorm Light Rain BKN110 66.2 65.7 98% 30.03 0.0 0.02
13 22:15 SE 8 10.00 Thunderstorm Light Rain BKN110 65.8 65.3 98% 30.03 0.0 0.01
13 21:55 E 9 10.00 Thunderstorm Light Rain in Vicinity OVC110 66.2 65.5 98% 30.04 0.0 0.1 0.64
13 21:35 SE 5 7.00 Thunderstorm Rain in Vicinity SCT060 SCT065 OVC110 66.4 65.8 98% 30.07 0.0 0.08
13 21:15 E 7 7.00 Thunderstorm Light Rain SCT005 BKN050 OVC060 66.4 65.8 98% 30.07 0.0 0.04
13 20:55 W 7 5.00 Thunderstorm Heavy Rain BKN007 BKN012 OVC042 66.7 66.2 98% 30.11 0.0 0.54
13 20:35 NW 17 G 41 3.00 Thunderstorm Heavy Rain SCT007 SCT016 BKN031 69.6 65.5 87% 30.11 0.0 0.14
13 20:15 SW 8 10.00 Partly Cloudy SCT070 79.3 67.8 68% 82 30.02 0.0
13 19:55 S 9 10.00 Fair CLR 80.2 68.5 68% 83 29.99 0.0
13 19:35 S 9 10.00 Fair CLR 80.8 69.6 69% 84 29.99 0.0
13 19:15 S 9 10.00 Fair CLR 81.7 69.1 66% 85 29.98 0.0
13 18:55 S 9 10.00 Thunderstorm in Vicinity SCT060 81.9 69.3 86.9 81.9 66% 85 29.99 0.0
13 18:35 S 8 10.00 Partly Cloudy SCT060 SCT070 82.8 69.4 64% 86 30 0.0
13 18:15 S 9 10.00 Mostly Cloudy SCT036 BKN060 BKN070 84.4 69.4 61% 88 30.01 0.0
13 17:55 S 8 G 17 10.00 Partly Cloudy SCT036 SCT044 SCT060 84.9 70.2 61% 90 30.02 0.0
13 17:35 S 12 10.00 Mostly Cloudy SCT040 BKN048 BKN065 84.7 70.2 62% 89 30.02 0.0
13 17:15 S 10 10.00 Mostly Cloudy BKN048 BKN050 86 70.5 60% 91 30.01 0.0
13 16:55 S 7 10.00 Partly Cloudy SCT048 SCT050 85.3 70 60% 90 30.01 0.0
13 16:35 S 13 G 16 10.00 Partly Cloudy SCT039 SCT047 SCT055 86.7 70.7 59% 92 30.02 0.0
13 16:15 S 8 10.00 Mostly Cloudy SCT039 BKN047 BKN050 85.3 71.4 63% 91 30.03 0.0
13 15:55 S 8 10.00 Mostly Cloudy SCT039 BKN049 BKN055 85.5 69.6 59% 90 30.05 0.0
13 15:35 S 10 10.00 Mostly Cloudy SCT039 BKN046 86.4 71.1 60% 92 30.06 0.0
13 15:15 S 10 G 17 10.00 Partly Cloudy SCT037 SCT046 SCT050 85.8 70.3 60% 91 30.07 0.0
13 14:55 S 8 10.00 Partly Cloudy SCT034 SCT041 SCT047 85.8 69.8 59% 90 30.08 0.0
13 14:35 S 7 10.00 Partly Cloudy SCT033 SCT075 84.9 71.6 64% 91 30.09 0.0
13 14:15 S 6 10.00 Partly Cloudy SCT085 85.3 71.1 63% 91 30.09 0.0
13 13:55 S 10 10.00 Fair CLR 84.2 70.7 64% 89 30.1 0.0
13 13:35 S 8 10.00 Mostly Cloudy SCT032 SCT042 BKN050 82.8 69.8 65% 87 30.1 0.0
13 13:15 S 7 10.00 Overcast BKN030 BKN036 OVC070 81.9 69.4 66% 85 30.11 0.0
13 12:55 S 9 10.00 Mostly Cloudy BKN030 BKN039 BKN070 82 69.1 82.9 66.7 65% 85 30.12 0.0
13 12:35 S 8 10.00 Partly Cloudy SCT030 SCT080 82.8 69.4 64% 86 30.12 0.0
13 12:15 SE 10 10.00 Partly Cloudy SCT070 82.6 69.4 65% 86 30.12 0.0
13 11:55 S 9 10.00 Mostly Cloudy SCT032 SCT044 BKN080 82.9 69.3 63% 87 30.12 0.0
13 11:35 S 7 10.00 Overcast BKN032 BKN044 OVC080 79.7 68.9 70% 82 30.13 0.0
Date Time (cdt) Wind (mph) Vis. (mi.) Weather Sky Cond. Air Dwpt Max. Min. Relative Humidity Wind Chill (°F) Heat Index (°F) altimeter (in) sea level (mb) 1 hr 3 hr 6 hr
6 hour
Temperature (ºF) Pressure Precipitation (in)